Torna al catalogo

ARIANE 3 DEB

LostGTO
NORAD 33539·DEBRIS·🇫🇷 France

Lanciato Sep 8, 1988 da Guiana Space Centre

Loading…

TLE

ObsoletoSource: Space-Track

Epoca: Mar 25, 2024, 20:53 UTC

1 33539U 88081P   24085.87059367 -.00000264  00000-0 -12668-1 0  9990
2 33539   7.8928  42.0153 7109372 226.4502  46.9462  2.19827325 26811

Traccia ARIANE 3 DEB in tempo reale con AllMySat

Download on the App Store